Location: ?????????
(55.3028°N, 38.6043°E)
Time: 06:03:22
(UTC+00:00)

Daily predictions for brighter satellites

Satellite Brightness Start Highest point End
(mag) Time Altitude Azimuth Time Altitude Azimuth Time Altitude Azimuth
CORIOLIS 4.2 14:04:06 10° SSE 14:09:24 63° ENE 14:14:43 10° NNW
Cosmos 2100 Rocket 4.5 14:06:58 10° SSE 14:12:35 37° E 14:18:11 10° NNE
Cosmos 1605 Rocket 4.0 14:07:12 10° S 14:13:24 84° E 14:19:35 10° NNE
CZ-2D R/B 3.3 14:11:04 10° SE 14:14:02 36° ENE 14:17:00 10° N
Cosmos 2263 Rocket 2.3 14:09:47 10° SW 14:15:21 85° WNW 14:20:59 10° NNE
MOS 1 Rocket 3.9 14:13:44 10° ESE 14:17:24 29° ENE 14:21:09 10° N
Cosmos 1025 Rocket 3.6 14:14:50 10° N 14:18:53 36° ENE 14:22:54 10° SE
Cosmos 1607 4.4 14:15:28 10° SSW 14:21:16 45° ESE 14:27:05 10° NE
SAR-Lupe-5 4.3 14:19:58 10° NNE 14:22:40 60° ESE 14:25:17 10° S
Cosmos 1844 Rocket 3.4 14:18:12 10° S 14:23:04 32° ESE 14:27:58 10° NE
SPOT 1/Viking Rocket 4.2 14:19:21 10° ESE 14:23:54 33° ENE 14:28:30 10° N
Cosmos 909 Rocket 4.2 14:17:49 10° NW 14:24:24 86° SW 14:30:44 10° SE
YAOGAN 1 3.7 14:21:57 10° ESE 14:25:15 22° ENE 14:28:33 10° N
Cosmos 2297 Rocket 3.6 14:20:53 10° W 14:25:58 33° NW 14:31:05 10° NNE
NOSS 3-4 (A) 3.7 14:20:27 10° NW 14:26:51 79° NE 14:34:27 10° ESE
NOSS 3-4 (C) 3.7 14:20:31 10° NW 14:26:55 78° NE 14:34:31 10° ESE
Cosmos 1833 Rocket 3.4 14:22:02 10° NNW 14:27:12 34° NE 14:32:20 10° ESE
ARIANE 5 R/B 2.4 14:22:22 10° SSE 14:27:19 69° ENE 14:32:18 10° NNW
Cosmos 1869 Rocket 4.0 14:25:29 10° SSW 14:29:47 66° WNW 14:34:05 10° N
Cosmos 1378 Rocket 3.4 14:26:23 10° N 14:30:42 77° ENE 14:35:01 10° SSE
SAR-Lupe-1 4.0 14:28:57 10° SSE 14:32:30 72° ENE 14:36:05 10° NNW
Aureole 3 4.1 14:29:14 10° NNW 14:33:19 54° W 14:36:43 10° S
Cosmos 1459 Rocket 4.2 14:29:17 10° SSE 14:35:13 48° E 14:41:16 10° NNE
NOSS 3-3 (A) 4.2 14:31:18 10° SSW 14:36:24 47° SE 14:42:28 10° NE
NOSS 8 (H) 4.5 14:32:54 10° WSW 14:36:38 73° NW 14:39:28 12° NE
Cosmos 1603 3.9 14:30:57 10° NW 14:36:42 81° WSW 14:42:21 10° SSE
UNK 3.8 14:33:16 10° NNE 14:37:51 58° ESE 14:42:24 10° S
ARIANE 6 FM1 Upper Stage 4.2 14:35:03 10° SSE 14:37:52 19° ESE 14:40:04 13° E
Cosmos 1484 Rocket 4.4 14:34:56 10° SSW 14:38:09 35° W 14:41:26 10° NNW
SL-16 R/B 2.6 14:32:29 10° NNE 14:38:48 88° WNW 14:45:06 10° SSW
Geosat 4.0 14:36:04 10° SE 14:41:00 64° NE 14:45:59 10° NNW
IGS 5A 4.2 14:39:30 10° S 14:43:24 56° W 14:47:22 10° NNW
SJ-12 3.6 14:39:38 10° SSE 14:43:27 79° ENE 14:47:17 10° NNW
Cosmos 1725 Rocket 4.4 14:38:39 10° SSE 14:44:23 40° E 14:50:11 10° NNE
Meteor 1-28 Rocket 3.2 14:41:52 10° N 14:45:15 71° WNW 14:48:36 10° SSW
Meteor 2-17 Rocket 4.4 14:40:45 10° N 14:46:54 75° ENE 14:53:03 10° SSE
CZ-2D R/B 3.8 14:43:35 10° SE 14:47:23 40° ENE 14:51:18 10° N
ATLAS 5 CENTAUR R/B 2.1 14:45:10 10° NW 14:48:43 37° NNE 14:52:00 15° E
Cosmos 1802 Rocket 4.3 14:44:51 10° SSE 14:50:57 48° E 14:57:06 10° NNE
ATLAS 2AS CENTAUR R/B 3.3 14:44:18 10° W 14:50:59 47° NNW 14:56:57 13° ENE
IRS-1C 4.3 14:46:00 10° SSE 14:51:20 82° WSW 14:56:43 10° NNW
COSMO-SKYMED 1 3.8 14:49:19 12° NE 14:51:50 19° E 14:54:48 10° SE
SAR-Lupe-4 4.1 14:48:39 10° S 14:52:12 63° WSW 14:55:48 10° NNW
SMAP 3.5 14:48:02 10° S 14:52:40 69° WSW 14:57:21 10° NNW
Iridium 4 Rocket 3.5 14:49:19 10° S 14:54:43 68° E 14:59:42 10° N
Cosmos 1302 Rocket 4.4 14:50:19 10° NNW 14:55:30 68° WSW 15:00:40 10° SSE
NOSS 3-3 (C) 4.0 14:52:49 10° SSW 14:58:02 55° SE 15:03:29 14° NE
Cosmos 1908 Rocket 4.0 14:55:54 10° SSE 15:00:00 40° E 15:04:09 10° NNE
Cosmos 2221 Rocket 3.5 14:55:41 10° N 15:00:15 75° ENE 15:04:44 10° SSE
Cosmos 1975 Rocket 3.8 14:56:53 10° N 15:00:41 29° ENE 15:04:28 10° SE
Tsikada Rocket 4.1 14:55:46 10° N 15:02:06 55° ENE 15:08:22 10° SSE
Cosmos 2173 Rocket 3.9 14:57:43 10° S 15:03:57 75° E 15:10:08 10° NNE
SWARM C 4.4 15:00:49 10° N 15:04:11 79° E 15:07:30 10° S
SWARM A 4.1 15:00:55 10° N 15:04:16 68° E 15:07:34 10° S
Cosmos 724 4.4 14:58:25 10° SW 15:04:40 82° SE 15:10:22 13° NE
Cosmos 1606 1.9 15:02:20 10° S 15:04:59 52° E 15:07:10 14° NNE
USA 281 3.5 14:59:29 10° ESE 15:05:42 47° NE 15:11:58 10° NNW
Cosmos 1300 Rocket 4.4 15:02:03 10° SSE 15:05:49 28° E 15:09:35 10° NNE
Spot 4 Rocket 4.0 15:02:04 10° SE 15:07:03 59° ENE 15:12:05 10° N
Landsat 7 4.1 15:02:57 10° S 15:07:36 70° WSW 15:12:17 10° NNW
SL-4 R/B 2.5 15:04:38 10° W 15:07:54 42° S 15:10:23 17° ESE
DNEPR-1 R/B 3.6 15:04:19 10° NW 15:08:35 62° NE 15:12:18 16° ESE
Cosmos 2227 4.2 15:03:25 10° SSW 15:09:09 72° ESE 15:14:54 10° NE
Cosmos 2082 Rocket 3.4 15:06:12 10° NNW 15:10:50 25° NNE 15:13:14 19° ENE
CZ-4C R/B 2.5 15:06:59 10° S 15:10:58 34° ESE 15:13:45 21° ENE
Cosmos 2227 Rocket 3.7 15:08:07 10° W 15:13:09 32° NW 15:18:13 10° NNE
SAR-Lupe-3 3.7 15:10:46 10° NNE 15:13:31 87° W 15:16:12 10° SSW
Cosmos 1733 Rocket 3.6 15:09:32 10° SSW 15:13:48 59° WNW 15:18:05 10° N
Cosmos 1992 Rocket 4.1 15:09:18 10° NNW 15:14:31 80° WSW 15:19:43 10° SSE
Resurs 01 Rocket 2.5 15:13:41 22° E 15:15:18 27° ENE 15:19:03 10° N
Cosmos 1844 3.7 15:15:39 10° SSW 15:21:23 69° ESE 15:26:43 12° NE
Cosmos 1441 Rocket 2.7 15:20:35 10° NNW 15:23:56 75° ENE 15:27:16 10° SSE
NOAA 6 4.1 15:21:17 10° SE 15:26:19 56° ENE 15:31:22 10° N
SJ-6B 4.3 15:28:37 18° NNE 15:28:37 18° NNE 15:29:58 10° N
CARTOSAT-1 3.9 15:26:38 24° ESE 15:28:37 39° ENE 15:32:34 10° N
Cosmos 2016 Rocket 3.9 15:28:33 10° S 15:34:47 77° E 15:41:09 10° NNE
Cosmos 44 4.2 15:32:30 10° W 15:36:57 42° NNW 15:40:09 19° NE
Cosmos 2219 4.3 15:32:07 10° WSW 15:37:25 40° NW 15:42:45 10° NNE
Cosmos 1340 Rocket 3.1 15:34:49 10° SSW 15:38:40 64° WNW 15:42:32 10° N
PSLV R/B 3.3 15:37:08 10° SSE 15:41:14 90° WNW 15:45:19 10° NNW
RESURS DK-1 3.4 15:41:07 10° NNW 15:44:22 27° NNE 15:44:22 27° NNE
SJ-7 4.3 15:41:19 10° S 15:45:02 75° WSW 15:48:44 10° NNW
CZ-4 R/B 3.6 15:48:01 11° NNE 15:48:01 11° NNE 15:48:17 10° NNE
Cosmos 614 Rocket 4.2 15:40:57 10° SW 15:46:09 69° WNW 15:51:19 10° NNE
Resurs 1-3 3.5 15:43:06 10° SSE 15:47:24 88° WSW 15:51:45 10° NNW
Helios 1A Rocket 2.3 15:50:01 63° SE 15:50:01 63° SE 15:53:10 10° S
Meteor 2-12 Rocket 4.3 15:44:34 10° N 15:50:43 66° ENE 15:56:47 10° SSE
Cosmos 2061 Rocket 3.9 15:46:22 10° S 15:52:39 71° E 15:58:55 10° NNE
MOS 1 Rocket 4.3 15:51:17 10° S 15:55:20 43° W 15:59:30 10° NNW
Cosmos 2263 Rocket 3.8 15:55:18 10° W 16:00:02 28° NNW 16:04:38 11° NNE
Cosmos 2344 3.9 15:52:53 10° WNW 16:00:04 55° NNE 16:04:01 32° E
Terra 4.0 16:02:50 12° NNE 16:02:50 12° NNE 16:03:29 10° NNE
YAOGAN 1 2.9 15:56:32 10° S 16:00:46 63° WSW 16:05:01 10° NNW
Cosmos 921 Rocket 2.9 15:57:47 10° SSW 16:02:04 71° ESE 16:03:02 51° NE
SPOT 1/Viking Rocket 4.3 15:58:02 10° S 16:03:04 54° W 16:08:11 10° NNW
Cosmos 1844 Rocket 3.1 16:01:08 10° SW 16:06:39 62° NW 16:10:52 18° NNE
Nadezhda 4 Rocket 4.2 16:00:49 10° N 16:06:58 49° ENE 16:08:34 40° ESE
Cosmos 1763 Rocket 3.5 16:02:49 10° NNW 16:08:04 61° ENE 16:09:02 52° ESE
Cosmos 1607 4.2 16:02:18 10° WSW 16:08:24 62° NW 16:11:54 26° NE
Cosmos 1833 Rocket 2.9 16:05:56 10° NW 16:11:35 72° WSW 16:15:40 19° SSE
Cosmos 2297 Rocket 4.3 16:08:04 10° NW 16:11:47 17° N 16:14:44 12° NNE
ATLAS CENTAUR R/B 3.2 16:11:17 10° SSW 16:12:10 16° S 16:12:10 16° S
BREEZE-M DEB (TANK) 3.9 16:12:54 10° SSW 16:14:51 28° S 16:14:51 28° S
ARIANE 6 FM1 Upper Stage 2.5 16:12:25 10° SW 16:16:08 76° SW 16:16:08 76° SW
Cosmos 1140 Rocket 4.4 16:14:01 10° S 16:16:58 31° SSE 16:16:58 31° SSE
Cosmos 1891 Rocket 4.5 16:15:21 10° S 16:21:41 64° E 16:28:05 10° NNE
Cosmos 1782 Rocket 3.8 16:17:16 10° SSW 16:21:42 71° WNW 16:26:10 10° N
SL-16 R/B 4.5 16:16:40 10° N 16:21:43 26° NW 16:26:44 10° WSW
SKYMED 2 4.2 16:17:59 10° N 16:22:15 56° WNW 16:26:30 10° SW
Cosmos 1867 3.5 16:19:56 10° SW 16:25:24 84° NW 16:26:47 52° NE
Timation 1 Rocket 4.2 16:19:43 10° NW 16:25:42 72° NE 16:26:46 58° ESE
CSL-04 Rocket 3.8 16:27:12 52° NE 16:27:12 52° NE 16:32:02 10° N
NOSS 3-3 (A) 4.2 16:21:31 10° WSW 16:27:06 62° NNW 16:29:55 34° NE
COSMO-SKYMED 1 2.8 16:25:43 30° N 16:27:35 64° WNW 16:31:40 10° SSW
ATLAS 5 CENTAUR R/B 1.7 16:27:23 10° NW 16:31:27 69° SW 16:31:34 69° SSW
Cosmos 540 Rocket 3.3 16:28:07 10° NNW 16:33:14 77° NE 16:33:14 77° NE
SPOT 5 3.7 16:35:12 42° NNE 16:35:12 42° NNE 16:39:03 10° N
Cosmos 1428 Rocket 4.4 16:29:43 10° N 16:35:53 62° ENE 16:36:04 62° E
Cosmos 1975 Rocket 4.2 16:34:28 10° NNW 16:38:32 41° W 16:42:36 10° SSW
Cosmos 468 Rocket 4.3 16:37:39 10° NNW 16:42:01 55° N 16:42:01 55° N
ATLAS 2AS CENTAUR R/B 3.2 16:36:37 10° WNW 16:43:10 45° N 16:44:21 41° NE
SL-4 R/B 4.0 16:42:22 10° WSW 16:44:10 19° SW 16:44:10 19° SW
NOSS 3-3 (C) 4.4 16:43:22 10° WSW 16:48:59 57° NNW 16:50:56 42° NNE
USA 281 3.7 16:45:03 17° S 16:50:09 57° WSW 16:56:39 10° NW
CZ-4B R/B 4.1 16:52:46 35° N 16:52:46 35° N 16:56:06 10° N
Resurs 01 Rocket 2.3 16:51:06 49° WSW 16:51:28 51° W 16:55:48 10° NNW
Cosmos 2082 Rocket 2.4 16:50:13 10° NNW 16:55:04 62° N 16:55:04 62° N
CZ-4B DEB 4.5 16:57:33 58° N 16:57:33 58° N 17:01:55 10° NNW
CZ-4C R/B 2.2 16:54:06 10° WSW 16:58:43 66° NW 16:58:43 66° NW
Cosmos 2227 Rocket 4.3 16:55:20 10° NW 16:59:00 17° N 17:00:52 15° NNE
COSMOS 2406 3.9 16:53:31 10° NNW 16:57:48 43° N 16:57:48 43° N
Terra 4.3 17:41:28 14° NNW 17:41:28 14° NNW 17:42:09 10° NNW
Cosmos 2263 Rocket 4.4 17:42:23 10° NW 17:45:53 16° N 17:46:16 16° N
Cosmos 2297 Rocket 4.4 17:54:05 10° NNW 17:56:31 17° N 17:56:31 17° N
Cosmos 2344 3.9 18:07:16 10° NW 18:14:01 68° W 18:14:01 68° W
ATLAS 2AS CENTAUR R/B 3.9 18:28:02 10° NW 18:31:46 35° NW 18:31:46 35° NW
Cosmos 2082 Rocket 4.5 18:34:50 10° NW 18:36:54 19° WNW 18:36:54 19° WNW
